This demonstration page uses our WeatherBlox Daily Observations layout. Learn more.

Left ArrowRight Arrow

39.01783, -85.05884

Hourly Observations for March 31, 2020

Temp ( °F °C ) Dew Point ( °F °C ) Humidity (%) Winds ( mph kmh ) Pressure ( in mb ) Visibility ( mi km ) Precip ( " mm )
12:52 am 00:52 Cloudy 47 8.3 35 1.7 63 63 NNE 7 11 30.04 1017 10 16 0.00 0.00
1:52 am 01:52 Cloudy 45 7.2 34 1.1 66 66 N 12 19 30.05 1018 10 16 0.00 0.00
2:52 am 02:52 Cloudy 44 6.7 33 0.6 65 65 N 8 13 30.05 1018 10 16 0.00 0.00
3:52 am 03:52 Cloudy 43 6.1 34 1.1 71 71 N 7 11 30.04 1017 10 16 0.00 0.00
4:52 am 04:52 Cloudy 42 5.6 33 0.6 71 71 N 8 13 30.02 1017 10 16 0.00 0.00
5:52 am 05:52 Cloudy 42 5.6 33 0.6 71 71 N 7 11 30.01 1016 10 16 0.00 0.00
6:52 am 06:52 Cloudy 41 5 34 1.1 76 76 N 6 9 30.00 1016 10 16 0.00 0.00
7:52 am 07:52 Cloudy 41 5 33 0.6 73 73 NNE 8 13 29.95 1014 10 16 0.00 0.00
8:52 am 08:52 Cloudy 41 5 33 0.6 73 73 NE 7 11 29.97 1015 10 16 0.00 0.00
9:52 am 09:52 Cloudy 42 5.6 33 0.6 71 71 NE 9 15 29.95 1014 10 16 0.00 0.00
10:52 am 10:52 Cloudy 42 5.6 33 0.6 71 71 NNE 8 13 29.94 1014 10 16 0.00 0.00
11:52 am 11:52 Cloudy 44 6.7 34 1.1 68 68 VRB 7 11 29.91 1013 10 16 0.00 0.00
12:52 pm 12:52 Cloudy 45 7.2 34 1.1 66 66 N 6 9 29.89 1012 10 16 0.00 0.00
1:52 pm 13:52 Cloudy 45 7.2 34 1.1 66 66 N 5 7 29.88 1012 10 16 0.00 0.00
2:52 pm 14:52 Cloudy 45 7.2 34 1.1 66 66 NNW 9 15 29.87 1012 10 16 0.00 0.00
3:52 pm 15:52 Cloudy 46 7.8 33 0.6 61 61 N 6 9 29.85 1011 10 16 0.00 0.00
4:52 pm 16:52 Cloudy 45 7.2 33 0.6 63 63 NNW 12 19 29.83 1010 10 16 0.00 0.00
5:52 pm 17:52 Cloudy 45 7.2 33 0.6 63 63 N 14 22 29.84 1011 10 16 0.00 0.00
6:34 pm 18:34 Cloudy 45 7.2 33 0.6 63 63 N 12 19 29.87 1012 10 16 0.00 0.00
6:52 pm 18:52 Cloudy 45 7.2 33 0.6 63 63 N 10 17 29.86 1011 10 16 0.00 0.00
7:52 pm 19:52 Cloudy 45 7.2 33 0.6 63 63 N 10 17 29.87 1012 10 16 0.00 0.00
8:52 pm 20:52 Cloudy 44 6.7 34 1.1 68 68 NNW 9 15 29.89 1012 10 16 0.00 0.00
9:52 pm 21:52 Cloudy 43 6.1 35 1.7 74 74 N 13 20 29.90 1013 10 16 0.00 0.00
10:12 pm 22:12 Cloudy 43 6.1 35 1.7 74 74 N 8 13 29.92 1013 10 16 0.00 0.00
10:52 pm 22:52 Cloudy 42 5.6 36 2.2 79 79 NNW 12 19 29.90 1013 10 16 0.00 0.00
11:52 pm 23:52 Cloudy 42 5.6 37 2.8 82 82 NNW 10 17 29.91 1013 8 13 0.00 0.00

Powered by AerisWeather